QPF
0.00 0.00 0.00 0.00 0.00 0.00 0.00 0.00 0.00 0.00 0.00 0.00 0.00 0.00 0.00 0.00 0.00 0.00 0.00 0.00 0.00 0.00 0.00 0.00 0.00 0.00 0.00 0.00 0.00 0.00 0.00 0.00 0.00 0.00 0.00 0.00 0.00 0.00 0.00 0.00 0.01 0.01 0.03 0.01
0.00 0.00 0.00 0.00 0.00 0.00 0.00 0.00 0.00 0.00 0.00 0.00 0.00 0.00 0.00 0.00 0.00 0.00 0.00 0.00 0.00 0.00 0.00 0.00 0.00 0.00 0.00 0.00 0.00 0.00 0.00 0.00 0.00 0.00 0.00 0.00 0.00 0.00 0.00 0.00 0.00 0.00 0.02 0.00
0.00 0.00 0.00 0.00 0.00 0.00 0.00 0.00 0.00 0.00 0.00 0.00 0.00 0.00 0.00 0.00 0.00 0.00 0.00 0.00 0.00 0.00 0.00 0.00 0.00 0.00 0.00 0.00 0.00 0.00 0.00 0.00 0.00 0.00 0.00 0.00 0.00 0.00 0.00 0.00 0.00 0.00 0.00 0.00
0.00 0.00 0.00 0.00 0.00 0.00 0.00 0.00 0.00 0.00 0.00 0.00 0.00 0.00 0.00 0.00 0.00 0.00 0.00 0.00 0.00 0.00 0.00 0.00 0.00 0.00 0.00 0.00 0.00 0.00 0.00 0.00 0.00 0.00 0.00 0.00 0.00 0.00 0.00 0.00 0.00 0.00 0.00 0.00
0.00 0.00 0.00 0.00 0.00 0.00 0.00 0.00 0.00 0.00 0.00 0.00 0.00 0.00 0.00 0.00 0.00 0.00 0.00 0.00 0.00 0.00 0.00 0.00 0.00 0.00 0.00 0.00 0.00 0.00 0.00 0.00 0.00 0.00 0.00 0.00 0.00 0.00 0.00 0.00 0.00 0.00 0.00 0.00
0.00 0.00 0.00 0.00 0.00 0.00 0.00 0.00 0.00 0.00 0.00 0.00 0.00 0.00 0.00 0.00 0.00 0.00 0.00 0.00 0.00 0.00 0.00 0.00 0.00 0.00 0.00 0.00 0.00 0.00 0.00 0.00 0.01 0.00 0.00 0.00 0.00 0.00 0.00 0.00 0.00 0.00 0.00 0.00
0.00 0.00 0.00 0.00 0.00 0.00 0.00 0.00 0.00 0.00 0.00 0.00 0.00 0.00 0.00 0.00 0.00 0.00 0.00 0.00 0.00 0.00 0.00 0.00 0.00 0.00 0.00 0.00 0.00 0.00 0.00 0.00 0.00 0.00 0.01 0.01 0.00 0.00 0.00 0.00 0.00 0.00 0.00 0.00
0.00 0.00 0.00 0.00 0.00 0.00 0.00 0.00 0.00 0.00 0.00 0.00 0.00 0.00 0.00 0.00 0.00 0.00 0.00 0.00 0.00 0.00 0.00 0.00 0.00 0.00 0.00 0.00 0.00 0.00 0.00 0.00 0.00 0.01 0.01 0.01 0.00 0.00 0.00 0.00 0.00 0.00 0.00 0.00
0.00 0.00 0.00 0.00 0.00 0.00 0.00 0.00 0.00 0.00 0.00 0.00 0.00 0.00 0.00 0.00 0.00 0.00 0.00 0.00 0.00 0.00 0.00 0.00 0.00 0.00 0.00 0.00 0.00 0.00 0.00 0.00 0.02 0.02 0.03 0.00 0.00 0.00 0.00 0.00 0.00 0.00 0.00 0.00
0.00 0.00 0.00 0.00 0.00 0.00 0.00 0.00 0.00 0.00 0.00 0.00 0.00 0.00 0.00 0.00 0.00 0.00 0.00 0.00 0.00 0.00 0.00 0.00 0.00 0.00 0.00 0.00 0.00 0.00 0.00 0.00 0.02 0.03 0.06 0.01 0.00 0.00 0.00 0.00 0.00 0.00 0.00 0.00
0.00 0.00 0.00 0.00 0.00 0.00 0.00 0.00 0.00 0.00 0.00 0.00 0.00 0.00 0.00 0.00 0.00 0.00 0.00 0.00 0.00 0.00 0.00 0.00 0.00 0.00 0.00 0.00 0.00 0.01 0.02 0.03 0.01 0.00 0.01 0.01 0.00 0.00 0.00 0.00 0.00 0.00 0.00 0.00
0.00 0.00 0.00 0.00 0.00 0.00 0.01 0.00 0.00 0.00 0.00 0.00 0.00 0.00 0.00 0.00 0.00 0.00 0.00 0.00 0.00 0.00 0.00 0.00 0.02 0.01 0.00 0.00 0.00 0.00 0.00 0.00 0.00 0.00 0.00 0.00 0.00 0.00 0.00 0.00 0.00 0.00 0.00 0.00
0.00 0.00 0.00 0.00 0.00 0.01 0.02 0.01 0.00 0.00 0.01 0.00 0.00 0.00 0.00 0.00 0.00 0.00 0.00 0.00 0.00 0.00 0.00 0.02 0.03 0.02 0.00 0.00 0.00 0.00 0.00 0.00 0.00 0.00 0.00 0.00 0.00 0.00 0.00 0.00 0.00 0.00 0.00 0.00
0.00 0.00 0.00 0.00 0.00 0.01 0.04 0.02 0.00 0.01 0.03 0.02 0.00 0.00 0.00 0.00 0.00 0.00 0.00 0.00 0.00 0.00 0.02 0.07 0.05 0.02 0.00 0.00 0.00 0.00 0.00 0.00 0.00 0.00 0.00 0.00 0.00 0.00 0.00 0.00 0.00 0.00 0.00 0.00
0.00 0.00 0.00 0.01 0.01 0.02 0.02 0.01 0.01 0.01 0.04 0.03 0.00 0.00 0.00 0.00 0.00 0.00 0.00 0.00 0.00 0.00 0.06 0.09 0.03 0.00 0.01 0.01 0.01 0.00 0.00 0.00 0.00 0.00 0.00 0.00 0.00 0.00 0.00 0.00 0.00 0.00 0.00 0.00
0.00 0.00 0.01 0.03 0.01 0.00 0.00 0.01 0.00 0.00 0.00 0.06 0.02 0.00 0.00 0.00 0.00 0.00 0.00 0.00 0.00 0.01 0.04 0.03 0.01 0.00 0.02 0.06 0.01 0.00 0.00 0.00 0.00 0.02 0.02 0.02 0.02 0.00 0.00 0.00 0.00 0.00 0.00 0.00
0.01 0.01 0.01 0.03 0.02 0.01 0.00 0.00 0.00 0.00 0.03 0.09 0.03 0.00 0.00 0.00 0.00 0.00 0.00 0.00 0.00 0.00 0.01 0.02 0.00 0.00 0.04 0.08 0.03 0.00 0.00 0.02 0.04 0.04 0.09 0.20 0.12 0.06 0.03 0.02 0.03 0.02 0.01 0.00
0.02 0.02 0.00 0.00 0.03 0.03 0.00 0.00 0.00 0.00 0.02 0.04 0.01 0.00 0.00 0.00 0.00 0.00 0.00 0.00 0.00 0.00 0.00 0.00 0.00 0.01 0.05 0.08 0.01 0.01 0.05 0.09 0.05 0.02 0.03 0.12 0.15 0.13 0.10 0.07 0.08 0.10 0.04 0.00
0.01 0.02 0.00 0.00 0.00 0.00 0.00 0.00 0.00 0.01 0.03 0.07 0.01 0.00 0.00 0.00 0.00 0.00 0.00 0.00 0.01 0.01 0.03 0.00 0.02 0.01 0.03 0.01 0.07 0.17 0.17 0.16 0.13 0.05 0.00 0.04 0.16 0.16 0.10 0.08 0.11 0.11 0.03 0.00
0.02 0.01 0.01 0.00 0.00 0.00 0.00 0.00 0.04 0.08 0.10 0.08 0.04 0.00 0.00 0.00 0.00 0.00 0.00 0.00 0.01 0.02 0.00 0.00 0.02 0.00 0.00 0.01 0.11 0.21 0.22 0.17 0.13 0.12 0.09 0.09 0.07 0.07 0.06 0.05 0.05 0.02 0.00 0.00
0.02 0.01 0.00 0.04 0.07 0.04 0.01 0.02 0.02 0.01 0.01 0.01 0.00 0.00 0.00 0.00 0.00 0.00 0.00 0.00 0.01 0.01 0.00 0.00 0.00 0.01 0.01 0.02 0.06 0.11 0.13 0.12 0.11 0.14 0.17 0.12 0.03 0.03 0.03 0.01 0.00 0.00 0.00 0.00
0.04 0.02 0.07 0.08 0.09 0.04 0.02 0.03 0.01 0.01 0.00 0.00 0.00 0.00 0.00 0.00 0.00 0.02 0.02 0.01 0.00 0.00 0.00 0.01 0.00 0.01 0.01 0.01 0.01 0.02 0.05 0.09 0.09 0.10 0.14 0.06 0.02 0.01 0.00 0.00 0.00 0.00 0.01 0.02
0.06 0.11 0.15 0.05 0.05 0.03 0.01 0.01 0.00 0.00 0.00 0.00 0.00 0.00 0.00 0.01 0.01 0.02 0.02 0.01 0.00 0.00 0.00 0.00 0.00 0.00 0.00 0.00 0.00 0.00 0.00 0.03 0.04 0.07 0.10 0.05 0.06 0.06 0.02 0.02 0.02 0.03 0.06 0.09
0.08 0.11 0.12 0.03 0.01 0.00 0.00 0.00 0.00 0.00 0.00 0.00 0.00 0.00 0.00 0.01 0.01 0.00 0.01 0.00 0.00 0.00 0.00 0.00 0.00 0.00 0.00 0.00 0.00 0.00 0.00 0.00 0.01 0.04 0.07 0.06 0.05 0.06 0.09 0.07 0.08 0.05 0.06 0.12
0.09 0.10 0.04 0.00 0.00 0.00 0.00 0.00 0.00 0.00 0.00 0.00 0.00 0.00 0.00 0.00 0.01 0.00 0.01 0.00 0.00 0.00 0.00 0.00 0.00 0.00 0.00 0.00 0.00 0.00 0.00 0.01 0.01 0.01 0.01 0.02 0.02 0.01 0.06 0.11 0.10 0.05 0.07 0.12
0.06 0.06 0.02 0.00 0.00 0.00 0.00 0.00 0.00 0.00 0.00 0.00 0.00 0.00 0.00 0.00 0.00 0.01 0.00 0.00 0.00 0.00 0.00 0.00 0.00 0.00 0.00 0.00 0.00 0.00 0.00 0.01 0.01 0.00 0.01 0.00 0.00 0.00 0.03 0.05 0.04 0.03 0.02 0.01
0.05 0.01 0.00 0.00 0.00 0.00 0.00 0.00 0.00 0.00 0.00 0.00 0.00 0.01 0.01 0.01 0.01 0.00 0.00 0.00 0.00 0.00 0.00 0.00 0.00 0.00 0.00 0.00 0.00 0.00 0.00 0.00 0.00 0.00 0.00 0.00 0.00 0.00 0.00 0.00 0.00 0.00 0.00 0.00
MSLP
1022.33 1022.59 1022.19 1022.09 1021.82 1021.22 1021.49 1022.64 1023.04 1021.67 1021.14 1022.51 1024.29 1024.61 1023.94 1023.65 1023.15 1022.60 1022.68 1022.93 1023.27 1023.73 1023.85 1024.01 1023.91 1023.87 1023.62 1023.42 1023.23 1023.36 1023.17 1022.73 1021.96 1020.80 1019.40 1018.75 1018.87 1019.03 1019.28 1019.39 1019.06 1018.57 1017.49 1014.67
1022.77 1023.12 1023.11 1022.63 1022.27 1021.76 1022.44 1023.88 1024.06 1022.65 1022.63 1024.27 1025.28 1024.97 1024.47 1024.02 1023.77 1023.83 1023.72 1023.95 1024.33 1024.52 1024.59 1024.69 1024.45 1024.21 1024.29 1024.13 1024.14 1024.32 1024.03 1023.76 1022.99 1020.94 1020.29 1019.82 1020.07 1019.94 1020.18 1020.31 1020.05 1019.22 1018.55 1015.22
1023.33 1023.80 1023.09 1022.53 1022.52 1022.02 1022.51 1024.49 1024.98 1024.62 1024.98 1025.47 1025.32 1025.38 1025.26 1025.00 1024.52 1024.48 1024.45 1024.94 1025.12 1025.47 1025.63 1025.38 1025.32 1025.22 1024.92 1024.91 1024.78 1024.51 1024.47 1024.28 1024.30 1023.31 1022.19 1022.28 1021.73 1020.96 1020.64 1020.95 1020.23 1019.40 1017.56 1016.29
1023.80 1023.90 1023.31 1022.45 1022.71 1022.26 1023.10 1025.41 1026.63 1026.37 1026.83 1026.57 1026.46 1025.84 1025.38 1025.31 1025.27 1025.37 1025.33 1026.07 1026.63 1026.71 1026.33 1026.28 1026.29 1026.25 1026.05 1025.56 1025.08 1024.70 1024.71 1024.61 1024.42 1023.62 1023.29 1022.89 1021.89 1020.44 1020.42 1020.56 1019.98 1019.21 1016.44 1016.73
1024.14 1024.02 1023.29 1022.66 1023.04 1022.70 1024.08 1025.86 1026.49 1026.72 1027.50 1027.23 1027.03 1025.91 1025.94 1026.03 1026.43 1026.32 1026.48 1026.91 1026.99 1027.02 1027.28 1027.46 1027.50 1027.53 1027.29 1026.51 1025.71 1025.45 1025.37 1025.09 1025.14 1023.65 1023.95 1023.02 1020.86 1019.17 1019.83 1019.09 1018.45 1017.67 1016.91 1015.62
1023.95 1023.78 1023.88 1023.50 1023.44 1023.56 1024.82 1026.03 1026.35 1026.63 1028.41 1027.81 1027.21 1026.61 1026.49 1027.06 1026.92 1026.89 1026.98 1027.30 1027.46 1027.49 1027.57 1027.65 1027.61 1027.41 1027.17 1026.65 1026.26 1026.02 1026.05 1025.97 1025.71 1022.90 1023.86 1022.69 1019.75 1018.19 1017.83 1017.30 1017.07 1016.73 1016.12 1015.20
1023.81 1023.87 1024.41 1024.12 1024.34 1023.96 1025.06 1026.41 1027.11 1027.43 1028.90 1028.01 1027.45 1026.78 1027.12 1027.54 1027.62 1027.96 1027.64 1027.62 1027.66 1027.36 1027.35 1027.38 1027.05 1026.89 1026.16 1025.46 1024.79 1024.96 1024.89 1025.26 1025.47 1023.87 1024.05 1021.61 1018.01 1017.21 1017.07 1016.94 1016.22 1015.63 1015.62 1015.34
1024.19 1024.55 1024.71 1024.98 1025.09 1024.96 1025.58 1026.35 1026.83 1027.53 1028.59 1028.07 1027.52 1027.37 1027.80 1027.96 1028.24 1028.44 1028.05 1027.63 1027.32 1027.29 1028.00 1028.32 1028.05 1027.11 1026.15 1024.83 1024.28 1024.02 1024.41 1024.96 1024.97 1024.18 1022.78 1019.96 1017.79 1016.87 1016.26 1016.16 1015.54 1015.54 1015.32 1014.78
1024.39 1024.87 1025.67 1025.67 1025.72 1025.74 1026.05 1026.43 1026.56 1027.40 1027.91 1028.29 1027.29 1027.92 1028.02 1028.49 1028.64 1028.61 1028.12 1027.51 1027.24 1027.79 1028.69 1029.39 1029.59 1028.54 1026.98 1025.71 1024.32 1023.53 1023.91 1024.35 1024.62 1023.91 1022.44 1020.27 1017.92 1016.64 1016.09 1015.97 1014.72 1015.06 1014.46 1014.97
1024.78 1025.62 1025.65 1025.99 1025.73 1026.05 1026.33 1026.72 1026.81 1027.17 1028.46 1027.74 1027.42 1027.75 1028.02 1028.23 1028.46 1028.74 1028.69 1028.31 1028.09 1028.21 1029.31 1030.14 1030.18 1028.86 1027.41 1026.32 1024.81 1023.85 1023.70 1023.55 1023.43 1022.43 1021.23 1018.93 1017.53 1016.77 1016.22 1016.20 1014.85 1014.66 1014.64 1014.87
1025.53 1025.67 1026.01 1025.91 1025.90 1026.05 1026.49 1027.31 1026.98 1027.27 1027.75 1027.42 1027.17 1027.16 1027.59 1027.94 1028.12 1028.71 1028.97 1029.04 1029.00 1029.29 1029.71 1030.10 1029.79 1029.17 1027.45 1026.33 1024.75 1024.12 1023.70 1023.25 1022.36 1021.40 1020.17 1017.87 1016.21 1015.96 1016.18 1015.02 1014.80 1014.52 1014.86 1015.03
1025.51 1025.82 1025.81 1025.72 1025.85 1026.38 1026.49 1027.26 1026.83 1026.77 1027.21 1027.07 1026.83 1026.49 1026.39 1026.53 1026.96 1028.08 1028.48 1028.45 1028.47 1028.67 1029.19 1029.44 1029.19 1028.67 1027.49 1026.26 1024.15 1023.48 1022.91 1021.87 1021.09 1020.05 1018.00 1016.39 1016.11 1015.62 1014.91 1014.93 1015.00 1014.72 1014.71 1014.71
1025.71 1025.72 1025.55 1025.43 1025.65 1025.71 1025.99 1026.18 1026.72 1026.79 1026.90 1026.57 1026.42 1025.70 1025.26 1025.70 1025.98 1026.54 1027.78 1027.76 1027.54 1027.75 1027.50 1028.25 1028.32 1027.73 1026.66 1025.63 1023.69 1022.28 1021.27 1020.82 1019.95 1019.14 1017.03 1015.92 1015.13 1015.00 1014.71 1014.39 1014.30 1013.93 1013.85 1014.07
1025.03 1025.07 1024.91 1024.89 1024.96 1025.14 1025.34 1025.67 1026.01 1026.34 1026.75 1026.82 1025.68 1024.76 1024.84 1024.24 1025.07 1025.72 1025.77 1026.08 1026.73 1027.04 1027.42 1027.64 1027.10 1026.61 1025.34 1024.32 1022.95 1021.64 1020.33 1020.09 1017.71 1017.06 1015.81 1014.72 1014.06 1013.80 1013.43 1013.28 1013.41 1013.31 1013.23 1013.36
1024.63 1024.58 1024.46 1024.28 1024.37 1024.52 1024.77 1025.27 1025.50 1025.86 1026.64 1026.55 1025.82 1024.55 1023.36 1023.45 1024.13 1024.86 1025.40 1025.94 1026.50 1026.86 1026.95 1026.50 1025.79 1025.12 1024.69 1023.02 1022.14 1018.48 1018.96 1017.45 1017.43 1015.02 1014.67 1014.09 1012.02 1012.31 1012.32 1012.31 1012.27 1012.36 1012.64 1012.62
1024.44 1024.32 1024.07 1023.66 1024.01 1024.38 1024.90 1025.70 1025.62 1025.87 1026.08 1026.47 1026.13 1024.39 1023.51 1023.33 1023.69 1024.38 1024.93 1025.36 1025.88 1026.01 1025.68 1025.11 1024.25 1023.55 1023.59 1021.86 1019.46 1016.72 1016.17 1016.62 1015.92 1014.44 1014.28 1013.55 1012.38 1011.77 1011.51 1011.31 1011.00 1011.28 1012.01 1012.40
1024.28 1024.22 1024.04 1023.83 1023.91 1024.42 1024.94 1025.26 1025.16 1025.28 1025.89 1026.43 1026.06 1025.12 1023.79 1023.54 1023.77 1024.35 1024.69 1024.85 1024.85 1025.01 1024.71 1023.76 1023.21 1022.67 1022.80 1020.89 1018.71 1015.67 1016.86 1016.77 1015.89 1015.15 1013.98 1012.26 1011.84 1010.34 1010.19 1009.87 1009.23 1009.62 1010.82 1011.37
1024.28 1024.14 1024.14 1024.13 1024.12 1024.61 1024.91 1024.87 1024.97 1025.25 1025.74 1026.24 1026.19 1025.41 1024.62 1023.80 1024.08 1024.51 1024.33 1024.35 1024.32 1023.89 1023.40 1022.84 1022.30 1021.65 1021.46 1019.99 1018.08 1017.90 1017.33 1016.33 1015.20 1014.45 1014.01 1012.74 1010.99 1009.97 1009.22 1009.33 1009.51 1009.27 1010.23 1010.99
1024.38 1024.25 1024.31 1024.46 1024.69 1024.89 1024.35 1024.11 1024.37 1024.82 1025.57 1025.55 1025.67 1025.61 1024.96 1024.20 1024.46 1024.56 1024.46 1024.18 1023.73 1023.17 1022.62 1022.04 1021.87 1020.99 1020.50 1019.46 1019.08 1018.32 1017.76 1017.11 1015.75 1014.45 1013.05 1011.01 1009.88 1008.48 1008.10 1008.02 1008.48 1008.91 1010.10 1011.37
1024.38 1024.43 1024.44 1024.41 1024.06 1023.75 1023.97 1024.43 1024.79 1025.09 1024.85 1024.81 1024.55 1024.53 1024.88 1024.61 1024.67 1024.51 1024.45 1023.83 1023.20 1022.51 1021.73 1021.33 1020.99 1020.19 1019.49 1019.69 1019.90 1019.41 1018.66 1017.88 1016.76 1015.04 1012.26 1009.85 1008.00 1006.67 1007.10 1007.68 1008.18 1009.21 1010.84 1012.31
1024.32 1024.37 1024.21 1023.63 1023.49 1023.78 1024.23 1024.52 1024.82 1024.76 1024.72 1024.14 1023.69 1023.77 1024.14 1023.92 1024.33 1024.39 1023.93 1023.47 1022.88 1022.51 1021.74 1021.52 1021.00 1020.42 1020.52 1020.32 1020.24 1019.90 1019.47 1018.69 1017.74 1016.42 1014.21 1010.91 1008.90 1008.17 1008.07 1008.70 1009.78 1011.02 1012.44 1013.87
1024.03 1023.99 1023.55 1023.46 1023.53 1023.84 1024.24 1024.12 1024.33 1024.20 1023.60 1023.15 1023.12 1023.08 1023.11 1023.32 1023.32 1023.53 1023.18 1022.90 1022.75 1022.04 1021.70 1021.61 1021.13 1020.86 1020.84 1020.89 1020.62 1020.36 1020.06 1019.34 1018.43 1017.23 1015.65 1013.60 1012.15 1011.21 1011.18 1011.83 1012.60 1013.60 1014.61 1015.76
1023.95 1023.75 1023.39 1023.07 1023.22 1023.46 1023.43 1023.09 1022.99 1022.88 1022.21 1022.16 1022.31 1022.22 1022.25 1022.78 1022.76 1022.78 1022.58 1022.32 1021.93 1021.61 1021.62 1021.29 1020.92 1021.10 1021.34 1021.46 1021.34 1021.07 1020.83 1020.22 1019.44 1018.56 1017.49 1016.33 1015.42 1014.74 1014.58 1014.84 1015.44 1015.99 1016.89 1018.04
1023.60 1023.01 1022.53 1022.20 1022.22 1021.84 1021.14 1021.07 1021.02 1020.92 1020.91 1021.07 1021.17 1021.46 1021.82 1022.12 1022.32 1022.22 1022.09 1021.51 1021.67 1021.42 1021.50 1020.94 1020.98 1021.34 1021.76 1021.88 1021.88 1021.66 1021.41 1021.04 1020.54 1020.13 1019.54 1018.73 1018.13 1017.80 1017.74 1017.86 1018.23 1018.32 1019.09 1020.04
1022.75 1021.93 1020.88 1020.70 1020.15 1020.21 1020.36 1020.62 1020.66 1020.50 1020.30 1020.48 1020.82 1021.20 1021.52 1021.73 1021.88 1021.70 1021.59 1021.57 1021.29 1020.99 1020.55 1020.62 1021.04 1021.46 1021.94 1022.15 1022.27 1022.27 1022.17 1021.92 1021.48 1021.33 1021.07 1020.73 1020.44 1020.14 1020.29 1020.61 1020.75 1020.83 1021.21 1021.85
1021.59 1020.65 1019.77 1019.74 1020.16 1020.23 1020.30 1020.41 1020.38 1020.05 1020.07 1020.22 1020.30 1020.83 1021.10 1021.08 1021.00 1021.15 1020.91 1020.99 1020.26 1019.82 1020.10 1020.50 1020.97 1021.49 1022.02 1022.28 1022.40 1022.53 1022.63 1022.54 1022.45 1022.19 1022.17 1022.20 1022.02 1022.03 1022.29 1022.49 1022.73 1023.04 1023.33 1023.79
1019.89 1019.33 1018.86 1018.96 1019.30 1019.17 1019.20 1019.35 1019.45 1019.39 1019.75 1019.87 1020.12 1020.28 1020.06 1020.34 1020.44 1020.34 1020.24 1019.81 1019.27 1019.48 1020.07 1020.58 1020.90 1021.48 1022.04 1022.22 1022.44 1022.54 1022.71 1022.92 1023.02 1023.00 1023.05 1023.24 1023.31 1023.43 1023.42 1023.74 1024.53 1024.70 1025.08 1025.42
Thickness
5499 5500 5510 5516 5522 5531 5531 5524 5528 5544 5551 5530 5508 5506 5542 5548 5546 5551 5552 5548 5548 5542 5539 5535 5533 5529 5524 5523 5529 5521 5522 5516 5511 5537 5548 5541 5539 5538 5533 5528 5522 5527 5529 5560
5490 5490 5495 5504 5510 5520 5519 5508 5510 5530 5534 5512 5507 5524 5533 5535 5535 5532 5537 5533 5528 5523 5528 5522 5521 5522 5515 5512 5510 5504 5505 5493 5493 5532 5538 5525 5519 5520 5517 5512 5502 5499 5504 5537
5480 5478 5489 5499 5501 5510 5512 5499 5491 5503 5505 5501 5512 5517 5516 5520 5525 5522 5525 5518 5513 5508 5505 5508 5502 5500 5505 5498 5498 5502 5493 5482 5485 5487 5502 5487 5491 5501 5499 5489 5479 5485 5503 5517
5469 5471 5479 5493 5494 5503 5501 5482 5476 5490 5478 5493 5496 5504 5512 5511 5508 5509 5507 5498 5488 5486 5490 5486 5486 5480 5480 5486 5488 5485 5477 5466 5467 5476 5470 5469 5474 5488 5485 5469 5473 5468 5509 5498
5457 5463 5474 5485 5485 5494 5485 5472 5474 5477 5476 5483 5489 5497 5500 5499 5490 5495 5492 5479 5478 5479 5473 5470 5461 5458 5460 5461 5469 5466 5452 5444 5439 5456 5447 5450 5465 5488 5462 5469 5473 5474 5483 5491
5452 5458 5463 5470 5475 5480 5472 5468 5469 5471 5459 5469 5478 5482 5484 5477 5482 5484 5481 5474 5467 5462 5460 5460 5454 5452 5451 5449 5443 5437 5430 5423 5418 5441 5429 5430 5446 5474 5464 5464 5467 5471 5469 5488
5446 5452 5451 5459 5462 5472 5467 5459 5455 5448 5435 5462 5469 5476 5472 5468 5468 5464 5465 5463 5457 5460 5455 5451 5450 5443 5443 5443 5443 5433 5424 5413 5403 5408 5409 5402 5467 5465 5456 5449 5467 5474 5466 5469
5437 5438 5442 5445 5448 5455 5456 5452 5452 5444 5426 5453 5461 5463 5459 5457 5454 5451 5449 5451 5453 5449 5441 5426 5418 5418 5434 5441 5431 5423 5413 5400 5386 5386 5395 5426 5453 5451 5447 5447 5460 5457 5450 5464
5430 5430 5428 5432 5436 5441 5447 5446 5448 5440 5427 5426 5456 5448 5449 5439 5438 5438 5442 5445 5443 5436 5419 5398 5363 5369 5413 5415 5421 5422 5402 5389 5380 5339 5366 5368 5436 5439 5442 5437 5450 5450 5454 5447
5419 5416 5420 5423 5429 5431 5436 5437 5438 5435 5413 5433 5442 5434 5435 5435 5433 5428 5425 5427 5423 5422 5390 5378 5360 5371 5399 5385 5395 5398 5392 5383 5376 5384 5379 5392 5416 5424 5429 5407 5435 5431 5434 5433
5405 5408 5411 5416 5422 5424 5426 5424 5429 5426 5411 5425 5434 5438 5433 5427 5425 5414 5416 5405 5399 5393 5377 5360 5354 5347 5377 5373 5384 5380 5371 5368 5367 5375 5371 5378 5425 5416 5398 5415 5413 5416 5411 5411
5399 5401 5405 5410 5414 5412 5415 5415 5425 5426 5420 5423 5430 5434 5436 5435 5430 5414 5407 5404 5402 5389 5366 5362 5369 5354 5345 5362 5370 5378 5365 5374 5363 5372 5390 5408 5400 5398 5404 5398 5392 5398 5395 5399
5389 5393 5399 5404 5407 5412 5414 5418 5417 5418 5418 5424 5427 5435 5438 5435 5429 5423 5399 5395 5401 5392 5387 5368 5365 5363 5358 5357 5366 5377 5380 5379 5371 5371 5392 5393 5399 5396 5395 5396 5391 5396 5397 5391
5388 5392 5399 5402 5405 5408 5412 5414 5414 5415 5413 5415 5424 5433 5434 5437 5428 5420 5418 5411 5400 5392 5383 5373 5373 5363 5368 5364 5376 5378 5386 5377 5387 5381 5393 5394 5399 5396 5395 5393 5389 5388 5389 5386
5384 5389 5395 5400 5403 5405 5409 5409 5410 5409 5406 5409 5413 5426 5439 5436 5428 5421 5413 5405 5396 5389 5383 5381 5382 5366 5367 5377 5372 5402 5391 5391 5376 5385 5399 5391 5406 5400 5394 5388 5386 5385 5380 5380
5378 5383 5390 5398 5398 5400 5401 5398 5402 5401 5402 5406 5406 5419 5431 5432 5427 5420 5412 5407 5399 5392 5390 5389 5388 5390 5373 5377 5394 5423 5417 5401 5392 5385 5378 5370 5372 5380 5383 5381 5385 5382 5374 5374
5373 5376 5381 5388 5393 5393 5390 5389 5397 5398 5398 5397 5406 5405 5422 5425 5423 5414 5409 5407 5403 5397 5393 5394 5392 5389 5375 5384 5389 5419 5396 5374 5368 5360 5356 5360 5359 5367 5365 5370 5383 5383 5373 5371
5365 5370 5374 5379 5383 5384 5385 5389 5390 5391 5392 5392 5399 5403 5402 5421 5408 5406 5407 5409 5402 5401 5399 5397 5392 5393 5383 5388 5401 5387 5375 5369 5368 5360 5349 5338 5344 5347 5353 5352 5352 5367 5361 5365
5357 5362 5366 5369 5372 5374 5380 5388 5388 5388 5388 5394 5394 5392 5389 5407 5397 5399 5399 5402 5405 5400 5402 5402 5397 5392 5392 5395 5385 5379 5370 5361 5355 5353 5348 5347 5337 5339 5346 5353 5355 5360 5361 5359
5350 5355 5358 5362 5368 5375 5377 5378 5376 5377 5382 5390 5400 5393 5390 5395 5381 5386 5392 5400 5408 5410 5401 5405 5406 5409 5406 5392 5377 5371 5365 5356 5352 5352 5358 5354 5353 5363 5354 5356 5364 5363 5354 5344
5344 5347 5352 5362 5365 5368 5366 5370 5375 5376 5385 5390 5397 5395 5389 5396 5385 5384 5393 5401 5403 5394 5399 5403 5396 5402 5390 5385 5376 5371 5363 5357 5349 5347 5348 5364 5374 5370 5367 5364 5356 5347 5339 5331
5339 5344 5351 5356 5360 5360 5362 5370 5368 5378 5384 5379 5391 5395 5401 5386 5392 5398 5400 5401 5396 5395 5391 5402 5392 5393 5389 5377 5373 5369 5363 5361 5355 5352 5354 5360 5363 5361 5355 5346 5341 5335 5331 5328
5329 5336 5343 5353 5356 5357 5366 5378 5383 5371 5380 5380 5389 5399 5399 5393 5396 5396 5398 5397 5402 5389 5400 5402 5390 5387 5383 5371 5366 5363 5359 5359 5358 5356 5352 5353 5353 5354 5352 5347 5342 5337 5333 5326
5325 5337 5345 5350 5354 5371 5383 5383 5383 5387 5387 5390 5396 5396 5396 5389 5391 5392 5393 5401 5394 5401 5398 5392 5385 5385 5375 5364 5360 5360 5357 5356 5355 5353 5350 5349 5347 5345 5342 5340 5337 5336 5329 5322
5324 5336 5354 5360 5371 5371 5368 5369 5375 5385 5388 5393 5390 5389 5388 5385 5387 5387 5392 5391 5393 5396 5394 5382 5385 5376 5366 5361 5356 5353 5351 5349 5349 5347 5345 5342 5341 5339 5335 5331 5328 5327 5324 5320
5323 5338 5357 5362 5359 5356 5368 5373 5366 5379 5387 5386 5385 5384 5382 5384 5388 5387 5394 5395 5399 5397 5383 5383 5379 5373 5360 5354 5354 5351 5347 5344 5342 5342 5339 5336 5334 5332 5328 5325 5322 5319 5317 5313
5330 5341 5351 5359 5359 5365 5366 5372 5377 5378 5384 5384 5380 5383 5385 5380 5387 5394 5383 5385 5389 5378 5382 5377 5374 5363 5358 5355 5351 5348 5345 5340 5337 5335 5333 5328 5326 5324 5323 5319 5311 5310 5306 5303